7 * 24
多渠道服务支持
STARLINK-37227(NORAD编号68558)是SpaceX星链(Starlink)卫星星座中的一颗低轨通信卫星,属于星链Gen2(第二代)星座批次,主要用于提供全球覆盖的高速卫星互联网服务。该卫星由SpaceX通过可复用猎鹰9号火箭发射入轨,运行在近地轨道,具备自动脱轨再入大气层的能力,以减少太空垃圾。它延续了星链卫星的设计,配备了氪离子推进系统,可进行轨道调整,满足星座组网和流量调度需求,支撑星链在偏远地区通信、灾害应急等场景的服务能力。
美国
(US)
| 数据来源 | 国际轨道数据 |
| 星历时间: | 2026-06-10T09:40:46+0800 10小时前 查看轨道信息 |
| 半长轴: | 6840.774km |
| 偏心率: | 0.0000807 |
| 轨道倾角: | 53.159° |
| 近地点辐角 | 109.553° |
| 升交点赤经 | 292.421° |
| 平近点角 | 250.556° |
| 近地点: | 462.084km |
| 远地点: | 463.19km |
| 周期: | 93.846分钟 |
| 每日圈数: | 15.344226 |